Reflectivity
-20 -20 -20 -20 -20 -20 -20 -20 -20 -20 -20 -20 -20 -20 -20 -20 -20 -20 -20 -20 -20 -20 -20 -20 -20 -20 -20 -20 -20 -20 -20 -20 -20 -20 -20 -20 -20 -20 -20 -20 -20 -20 -20 -20
-20 -20 -20 -20 -20 -20 -20 -20 -20 -20 -20 -20 -20 -20 -20 -20 -20 -20 -20 -20 -20 -20 -20 -20 -20 -20 -20 -20 -20 -20 -20 -20 -20 -20 -20 -20 -20 -20 -20 -20 -20 -20 -20 -20
-20 -20 -20 -20 -20 -20 -20 -20 -20 -20 -20 -20 -20 -20 -20 -20 -20 -20 -20 -20 -20 -20 -20 -20 -20 -20 -20 -20 -20 -20 -20 -20 -20 -20 -20 -20 -20 -20 -20 -20 -20 -20 -20 -20
-20 -20 -20 -20 -20 -20 -20 -20 -20 -20 -20 -20 -20 -20 -20 -20 -20 -20 -20 -20 -20 -20 -20 -20 -20 -20 -20 -20 -20 -20 -20 -20 -20 -20 -20 -20 -20 -20 -20 -20 -20 -20 -20 -20
-20 -20 -20 -20 -20 -20 -20 -20 -20 -20 -20 -20 -20 -20 -20 -20 -20 -20 -20 -20 -20 -20 -20 -20 -20 -20 -20 -20 -20 -20 -20 -20 -20 -20 -20 -20 -20 -20 -20 -20 -20 -20 -20 -20
-20 -20 -20 -20 -20 -20 -20 -20 -20 -20 -20 -20 -20 -20 -20 -20 -20 -20 -20 -20 -20 -20 -20 -20 -20 -20 -20 -20 -20 -20 -20 -20 -20 -20 -20 -20 -20 -20 -20 -20 -20 -20 -20 -20
-20 -20 -20 -20 -20 -20 -20 -20 -20 -20 -20 -20 -20 -20 -20 -20 -20 -20 -20 -20 -20 -20 -20 -20 -20 -20 -20 -20 -20 -20 -20 -20 -20 -20 -20 -20 -20 -20 -20 -20 -20 -20 -20 -20
-20 -20 -20 -20 -20 -20 -20 -20 -20 -20 -20 -20 -20 -20 -20 -20 -20 -20 -20 -20 -20 -20 -20 -20 -20 -20 -20 -20 -20 -20 -20 -20 -20 -20 -20 -20 -20 -20 -20 -20 -20 -20 -20 -20
-20 -20 -20 -20 -20 -20 -20 -20 -20 -20 -20 -20 -20 -20 -20 -20 -20 -20 -20 -20 -20 -20 -20 -20 -20 -20 -20 -20 -20 -20 -20 -20 -20 -20 -20 -20 -20 -20 -20 -20 -20 -20 -20 -20
-20 -20 -20 -20 -20 -20 -20 -20 -20 -20 -20 -20 -20 -20 -20 -20 -20 -20 -20 -20 -20 -20 -20 -20 -20 -20 -20 -20 -20 -20 -20 -20 -20 -20 -20 -20 -20 -20 -20 -20 -20 -19 -20 -20
-20 -20 -20 -20 -20 -20 -20 -20 -20 -20 -20 -20 -20 -20 -20 -20 -20 -20 -20 -20 -20 -20 -20 -20 -20 -20 -20 -20 -20 -20 -20 -20 -20 -20 -20 -20 -20 -20 -20 -20 -20 -20 -20 -20
-20 -20 -20 -20 -20 -20 -20 -20 -20 -20 -20 -20 -20 -20 -20 -20 -20 -20 -20 -20 -20 -20 -20 -20 -20 -20 -20 -20 -20 -20 -20 -20 -20 -20 -20 -20 -20 -20 -20 -20 -20 -20 -20 -20
-20 -20 -20 -20 -20 -20 -20 -20 -20 -20 -20 -20 -20 -20 -20 -20 -20 -20 -20 -20 -20 -20 -20 -20 -20 -20 -20 -20 -20 -20 -20 -20 -20 -20 -20 -20 -20 -20 -20 -20 -20 -20 -20 -20
-3 -20 -20 -20 -20 -20 -20 -20 -20 -20 -20 -20 -20 -20 -20 -20 -20 -20 -20 -20 -20 -20 -20 -20 -20 -20 -20 -20 -20 -20 -20 -20 -20 -20 -20 -20 -20 -20 -20 -20 -20 -20 -20 -20
-5 -20 -20 -16 -17 -20 -20 -20 -20 -20 -20 -20 -20 -20 -20 -20 -20 -20 -20 -20 -20 -20 -20 -20 -20 -20 -20 -20 -20 -20 -20 -20 -20 -20 -20 -20 -20 -20 -20 -20 -20 -20 -14 -17
9 -2 -20 -20 -16 -20 -20 -20 -20 -20 -20 -20 -20 -20 -20 -20 -20 -20 -20 -20 -20 -20 -20 -20 -20 -20 -20 -20 -20 -20 -20 -20 -20 -20 -20 -20 -20 -20 -20 -20 -20 -20 -20 -20
11 8 0 -18 -19 -20 -20 -20 -20 -20 -20 -20 -20 -20 -20 -20 -20 -20 -20 -20 -11 -19 -20 -20 -20 -20 -20 -20 -20 -20 -20 -20 -20 -20 -20 -20 -20 -20 -20 -20 -20 -20 -20 -10
13 13 9 -12 -20 -20 -20 -20 -20 -20 -20 -20 -20 -20 -20 -20 -20 -20 -20 -20 -13 -20 -20 -7 -14 -20 -20 -20 -20 -20 -20 -20 -20 -20 -20 -20 -20 -20 -20 -20 -20 -20 2 7
12 8 9 0 -20 -20 -20 -20 -20 -20 -20 -20 -20 -20 -20 -20 -20 -20 -20 -20 -20 -20 -20 -20 -20 -20 -20 -20 -20 -20 -20 -9 -20 -20 -20 -20 -20 -20 -20 -20 -20 -20 6 9
7 11 -1 -19 -20 -20 -20 -20 -20 -20 -20 -20 -20 -20 -20 -20 -20 -20 -20 -20 -20 -2 -10 -20 -20 -20 -20 -20 -20 -20 -20 -20 -17 -20 -20 -20 -6 -20 -20 -20 -20 -20 -9 -5
-8 -17 -6 -19 -2 -20 -20 -20 -20 -20 -20 -20 -20 -20 -20 -20 -20 -20 -20 -20 -20 -20 -20 -20 -20 -20 -5 -20 -20 -20 -20 -20 -4 -20 -20 -20 -1 -9 -20 -20 -20 -18 -6 -14
-15 -20 -19 -9 -3 3 -20 -20 -20 -20 -20 -20 -20 -20 -20 -20 -20 -20 -20 -20 -20 -20 -20 -20 -20 -20 -20 -20 -20 -20 -20 -20 -19 -18 -20 -20 -4 -13 -20 -20 -11 -17 -18 -20
-20 -20 -20 -20 -20 -20 -20 -20 -20 -20 -20 -20 -20 -20 -20 -20 -20 -20 -20 -20 -20 -20 -20 -20 -20 -20 -20 -20 -20 -20 -20 -20 -20 12 -10 5 -8 -20 -20 -20 -13 -20 -20 -20
-20 -20 -20 -20 -20 -20 -20 -20 -20 -20 -20 -20 -20 -20 -20 -20 -20 -20 -20 -20 -20 -20 -20 -20 -20 -20 -20 -20 -20 -20 -20 -20 -20 12 18 17 -19 -18 -20 -20 -20 -20 -20 -20
-20 -20 -20 -20 -20 -20 -20 -20 -20 -20 -20 -20 -20 -20 -20 -20 -20 -20 -20 -20 -20 -20 -20 -20 -20 -20 -20 -20 -20 -20 -20 -20 -20 4 26 20 -15 -19 -17 -20 -20 -20 -20 -20
-20 -20 -20 -20 -20 -20 -20 -20 -20 -20 -20 -20 -20 -20 -20 -20 -20 -20 -20 -20 -20 -20 -20 -20 -20 -20 -20 -20 -20 -20 -20 -20 -20 -17 28 21 11 -20 -19 -20 -20 -20 -20 -20
Wind_Speed
3 5 3 4 5 2 3 2 2 3 1 1 5 6 8 3 4 6 6 6 6 6 3 4 5 6 6 5 6 5 4 4 4 3 3 3 3 5 3 5 7 7 5 5
5 2 2 2 2 3 2 2 4 4 1 2 4 10 7 6 6 7 10 8 8 6 6 6 6 5 3 5 5 6 5 5 4 3 2 1 3 2 3 4 6 6 6 6
4 1 3 2 2 3 3 4 3 5 1 3 4 7 4 3 3 3 5 5 7 10 11 8 7 5 5 5 5 5 4 5 5 5 3 3 2 2 2 5 6 6 8 7
3 2 1 1 2 5 2 1 1 2 3 3 2 6 5 3 6 6 7 8 10 11 7 8 7 6 5 5 4 5 5 5 4 5 5 5 3 4 3 6 5 7 8 8
4 2 1 3 3 2 4 3 3 2 3 3 3 2 6 2 5 9 9 7 9 12 14 12 8 7 6 5 4 4 3 5 5 5 5 4 5 4 6 6 9 9 8 8
4 3 2 3 2 2 7 4 6 4 3 2 5 4 4 5 5 5 1 3 7 7 8 9 7 7 6 4 3 3 5 4 5 5 6 7 7 8 8 9 8 8 8 7
3 2 4 2 2 2 3 5 3 5 3 6 4 1 8 5 4 4 5 5 7 8 8 8 9 7 6 4 3 3 5 5 6 8 8 8 8 8 9 9 7 9 8 7
3 6 4 2 3 4 3 4 6 6 3 4 1 7 6 3 5 6 3 7 7 8 6 6 5 6 6 5 4 4 4 5 7 8 9 8 7 5 5 6 6 6 6 8
5 4 1 1 0 1 4 3 4 7 2 2 4 7 8 3 4 3 5 9 9 7 6 7 5 5 4 4 4 4 5 6 6 7 7 7 7 6 8 8 7 6 7 7
4 1 1 1 1 2 2 4 3 1 3 4 4 5 6 5 5 2 5 8 7 6 7 7 6 5 3 3 3 3 5 5 5 7 7 6 7 7 7 8 9 10 10 10
4 3 2 1 5 7 2 2 3 4 4 5 2 5 5 4 5 6 6 6 7 6 6 6 6 4 4 2 1 3 3 4 5 6 7 7 7 8 7 7 8 9 10 10
5 5 4 8 1 2 3 6 5 4 4 1 3 7 1 6 6 5 7 6 4 5 5 5 6 5 2 1 0 2 3 4 4 5 6 7 8 7 7 8 9 9 10 10
6 3 1 5 3 2 2 3 3 4 3 6 5 5 1 4 2 4 9 6 6 6 5 5 5 4 2 1 3 3 3 4 6 6 6 7 7 7 8 8 9 9 10 10
4 3 5 7 3 3 3 4 5 5 3 3 9 6 9 10 4 2 3 5 5 5 6 4 3 2 1 3 3 3 4 4 5 6 6 6 7 8 8 8 8 9 9 10
3 4 3 4 4 2 3 5 7 7 5 7 3 7 6 6 6 6 7 6 6 5 5 4 2 1 3 3 3 2 3 4 5 6 5 6 7 7 7 7 8 8 8 8
1 2 4 3 5 7 6 11 10 13 10 9 12 14 8 9 3 5 9 8 7 6 5 4 1 2 3 1 2 3 3 4 4 5 5 6 6 7 6 6 7 7 8 8
3 3 2 3 0 3 6 16 17 11 4 3 7 3 6 5 6 7 8 10 9 8 6 4 1 2 1 2 2 2 3 3 4 5 5 6 6 6 6 6 7 9 8 8
5 3 2 2 1 5 4 2 4 5 5 4 3 6 7 5 2 5 2 8 8 6 6 4 2 1 1 1 2 2 1 3 4 5 5 5 5 5 5 5 7 7 6 7
5 4 3 4 4 6 5 2 3 4 3 5 4 8 4 2 3 8 7 5 6 5 3 3 2 1 1 2 2 2 2 2 3 4 5 4 4 4 5 6 6 6 5 5
7 3 4 3 4 6 1 1 3 2 2 6 6 9 7 5 3 2 2 3 6 5 1 3 2 1 2 2 1 2 3 3 3 4 4 4 3 3 4 4 4 3 3 4
5 4 12 6 5 4 3 5 4 5 3 2 3 4 8 5 2 2 3 2 3 2 2 1 2 4 4 3 1 3 4 5 2 3 4 3 3 2 3 2 2 3 3 3
5 6 4 6 4 8 4 3 2 2 1 4 2 3 5 5 6 6 4 3 5 4 5 5 3 2 3 4 2 3 5 4 1 1 3 2 1 2 2 2 2 2 3 4
3 3 3 5 2 4 2 4 1 3 2 0 2 2 2 4 4 5 5 5 5 5 5 3 3 4 4 4 1 4 4 3 3 2 2 2 1 1 2 2 3 2 3 3
2 1 1 1 1 4 1 1 5 5 4 3 4 5 4 6 6 7 7 7 6 5 6 4 5 6 6 4 4 5 5 4 4 3 3 2 1 1 2 2 1 1 2 2
3 4 3 3 5 2 1 4 4 6 5 6 6 7 7 7 9 7 8 8 8 8 6 5 7 6 7 6 6 5 4 5 5 4 3 3 1 2 1 2 2 1 1 1
5 6 5 6 6 5 6 5 4 5 7 8 8 8 9 9 10 10 10 9 8 9 8 7 8 7 7 6 6 6 5 6 6 4 3 3 2 2 2 2 3 8 7 8
Wind_Direction
10 75 191 225 209 149 133 160 247 252 19 212 248 265 263 236 211 194 197 191 193 193 175 141 140 132 123 108 110 101 90 45 35 13 2 6 357 335 342 337 332 322 314 310
25 206 184 237 158 194 214 226 262 286 136 175 338 285 256 201 216 203 195 194 195 172 155 151 143 150 130 119 107 91 69 43 40 33 13 343 321 312 303 323 327 332 336 329
168 162 322 206 155 158 214 191 214 228 29 48 318 285 239 225 200 217 228 203 172 188 166 163 151 145 129 110 97 78 47 32 34 21 359 350 333 308 332 348 335 335 325 318
214 273 194 211 225 135 251 184 249 209 91 227 350 272 287 234 247 223 225 212 193 175 156 155 151 141 135 117 93 65 40 27 28 18 24 17 348 331 319 316 309 314 326 326
243 150 116 175 191 184 230 51 77 40 85 47 293 47 267 341 260 239 222 220 219 184 163 160 153 138 122 120 86 59 40 37 23 19 21 3 340 315 317 317 322 322 324 323
279 316 201 204 115 142 151 89 60 59 61 342 236 189 258 197 224 307 298 187 178 174 144 129 121 126 123 118 98 61 31 27 20 14 6 359 338 329 325 325 322 319 314 314
308 247 300 240 122 94 103 82 1 359 6 233 339 310 259 258 262 259 247 173 144 133 136 137 139 138 136 120 70 47 25 18 11 8 353 342 334 329 324 323 316 316 312 309
152 319 177 204 254 176 171 153 153 201 201 276 359 240 260 237 307 278 177 124 113 124 130 139 141 132 126 107 71 31 20 16 12 350 340 336 332 324 309 304 304 299 301 303
153 271 11 235 235 163 184 178 154 112 108 40 252 293 299 305 350 97 137 135 142 142 140 133 119 113 113 97 68 29 19 15 357 339 333 330 318 323 313 311 299 292 299 302
187 271 191 257 158 13 184 169 93 33 162 239 278 275 248 334 340 137 160 158 151 140 138 133 135 128 95 59 51 54 33 352 330 329 327 318 311 318 323 318 318 322 318 314
137 127 285 51 214 182 143 223 56 98 142 165 281 260 212 269 301 220 189 174 163 157 146 137 131 132 117 101 43 40 1 323 318 323 320 318 324 327 330 328 323 318 316 315
184 148 205 219 240 178 164 200 161 133 217 179 139 266 345 275 267 187 186 169 144 133 136 135 142 144 146 163 352 327 307 305 309 311 318 325 329 334 336 326 321 321 325 316
183 177 75 335 6 45 221 209 161 109 102 192 155 253 83 21 355 193 165 163 150 142 132 133 138 156 198 324 290 282 337 315 310 318 335 338 335 333 329 325 324 330 321 319
147 163 184 187 175 140 187 208 198 163 171 181 236 285 309 337 337 255 203 159 159 152 141 128 126 171 264 267 278 291 311 313 315 323 343 337 333 329 326 323 327 329 329 324
155 213 191 241 227 224 230 226 201 204 210 216 203 218 239 256 279 220 189 171 155 158 143 130 98 340 248 271 314 303 295 319 336 325 342 333 325 322 325 326 332 328 332 329
334 234 173 244 238 212 235 248 235 239 240 253 259 264 252 265 226 193 192 178 174 161 144 130 139 251 233 287 267 262 309 328 330 328 330 326 327 328 333 335 337 346 348 343
188 178 154 240 11 287 264 227 224 236 162 255 243 278 332 295 254 237 216 187 164 149 140 123 174 262 263 300 271 301 310 313 326 330 328 331 336 330 341 344 0 5 352 348
163 173 183 248 218 232 240 181 170 141 70 7 334 326 293 286 9 10 306 145 134 140 140 147 119 14 287 310 308 285 301 309 330 333 326 332 333 334 346 359 13 357 351 351
211 160 196 202 208 312 290 66 126 186 106 2 330 337 31 24 10 25 16 67 107 115 123 119 86 263 279 335 299 286 307 307 321 333 323 331 330 335 356 18 7 350 358 354
189 257 199 153 208 236 129 13 5 238 118 357 21 22 348 344 85 264 29 77 86 84 75 77 54 45 46 15 325 311 298 290 309 323 307 316 315 350 0 11 8 335 352 358
152 195 227 215 227 280 318 289 299 155 169 87 35 18 20 37 282 282 142 84 104 92 27 85 75 35 352 325 297 303 288 275 275 301 301 307 307 348 2 1 16 360 7 22
180 172 187 205 240 253 296 2 112 181 113 127 44 27 6 346 6 13 37 25 6 354 345 19 25 322 323 303 235 289 279 266 224 262 285 279 312 14 5 355 354 22 32 51
236 187 189 192 194 167 14 140 168 122 139 168 328 322 317 314 313 313 303 317 313 314 306 299 310 340 308 279 277 281 266 227 217 215 250 251 220 40 16 357 2 359 43 63
254 164 207 27 171 175 93 195 136 174 207 259 270 268 273 270 270 276 281 276 275 280 291 292 297 294 293 299 287 259 260 215 212 222 215 236 218 104 46 348 8 23 40 66
212 146 179 281 279 272 281 203 233 258 268 257 246 243 250 250 271 251 268 270 268 268 259 256 261 262 276 284 277 283 257 199 214 216 199 226 173 99 119 56 27 57 52 153
186 186 166 221 220 183 234 257 235 232 249 249 254 264 251 248 252 261 261 263 259 262 261 252 245 249 259 270 267 273 241 198 206 206 195 202 166 120 129 112 66 59 88 94